| time (UTC) | temp F | wind direction | speed MPH | gust MPH | rain 1hr in | rain 24hr in | rain mn in | humidity % | barometer mb |
| 20260508220243 | 76 | 336 | 5.0 | 11.0 | 0.00 | 0.00 | 0.00 | 20 | 1009.8 |
| 20260508215724 | 76 | 345 | 5.0 | 11.0 | 0.00 | 0.00 | 0.00 | 21 | 1009.8 |
| 20260508215207 | 76 | 341 | 5.0 | 13.0 | 0.00 | 0.00 | 0.00 | 21 | 1009.8 |
| 20260508214648 | 76 | 0 | 4.0 | 13.0 | 0.00 | 0.00 | 0.00 | 20 | 1010.0 |
| 20260508214141 | 76 | 343 | 4.0 | 13.0 | 0.00 | 0.00 | 0.00 | 21 | 1010.0 |
| 20260508213648 | 75 | 351 | 5.0 | 13.0 | 0.00 | 0.00 | 0.00 | 21 | 1010.1 |
| 20260508213131 | 76 | 328 | 5.0 | 12.0 | 0.00 | 0.00 | 0.00 | 20 | 1010.1 |
| 20260508212626 | 76 | 95 | 4.0 | 11.0 | 0.00 | 0.00 | 0.00 | 21 | 1010.2 |
| 20260508212129 | 76 | 342 | 3.0 | 11.0 | 0.00 | 0.00 | 0.00 | 21 | 1010.3 |
| 20260508211635 | 76 | 357 | 3.0 | 11.0 | 0.00 | 0.00 | 0.00 | 20 | 1010.3 |
| 20260508211141 | 76 | 313 | 4.0 | 10.0 | 0.00 | 0.00 | 0.00 | 22 | 1010.3 |
| 20260508210623 | 75 | 322 | 5.0 | 13.0 | 0.00 | 0.00 | 0.00 | 21 | 1010.4 |
| 20260508210132 | 75 | 338 | 5.0 | 13.0 | 0.00 | 0.00 | 0.00 | 20 | 1010.5 |
| 20260508205630 | 75 | 4 | 5.0 | 13.0 | 0.00 | 0.00 | 0.00 | 20 | 1010.5 |
| 20260508205112 | 75 | 12 | 5.0 | 13.0 | 0.00 | 0.00 | 0.00 | 20 | 1010.7 |
| 20260508203939 | 75 | 342 | 4.0 | 12.0 | 0.00 | 0.00 | 0.00 | 22 | 1010.9 |
| 20260508202754 | 74 | 30 | 3.0 | 13.0 | 0.00 | 0.00 | 0.00 | 22 | 1011.0 |
| 20260508202238 | 74 | 323 | 5.0 | 13.0 | 0.00 | 0.00 | 0.00 | 21 | 1011.0 |
| 20260508201746 | 74 | 341 | 5.0 | 13.0 | 0.00 | 0.00 | 0.00 | 20 | 1011.1 |
| 20260508195939 | 74 | 344 | 5.0 | 12.0 | 0.00 | 0.00 | 0.00 | 22 | 1011.2 |
| 20260508195424 | 73 | 336 | 4.0 | 12.0 | 0.00 | 0.00 | 0.00 | 22 | 1011.2 |
| 20260508194927 | 74 | 347 | 3.0 | 11.0 | 0.00 | 0.00 | 0.00 | 22 | 1011.3 |
| 20260508194432 | 74 | 324 | 4.0 | 10.0 | 0.00 | 0.00 | 0.00 | 23 | 1011.3 |
| 20260508193935 | 74 | 329 | 4.0 | 10.0 | 0.00 | 0.00 | 0.00 | 22 | 1011.4 |
| 20260508193425 | 74 | 339 | 4.0 | 10.0 | 0.00 | 0.00 | 0.00 | 22 | 1011.3 |
| 20260508192926 | 74 | 352 | 4.0 | 10.0 | 0.00 | 0.00 | 0.00 | 22 | 1011.3 |
| 20260508192418 | 74 | 343 | 4.0 | 9.0 | 0.00 | 0.00 | 0.00 | 23 | 1011.4 |
| 20260508191925 | 74 | 331 | 2.0 | 9.0 | 0.00 | 0.00 | 0.00 | 23 | 1011.4 |
| 20260508191426 | 75 | 322 | 2.0 | 11.0 | 0.00 | 0.00 | 0.00 | 23 | 1011.4 |
| 20260508190258 | 73 | 334 | 4.0 | 11.0 | 0.00 | 0.00 | 0.00 | 24 | 1011.5 |
| 20260508185755 | 73 | 325 | 2.0 | 11.0 | 0.00 | 0.00 | 0.00 | 23 | 1011.6 |
| 20260508184034 | 72 | 346 | 3.0 | 13.0 | 0.00 | 0.00 | 0.00 | 24 | 1011.8 |
| 20260508183536 | 72 | 353 | 3.0 | 15.0 | 0.00 | 0.00 | 0.00 | 24 | 1011.8 |
| 20260508183042 | 71 | 358 | 4.0 | 15.0 | 0.00 | 0.00 | 0.00 | 25 | 1011.9 |
| 20260508182551 | 72 | 315 | 3.0 | 15.0 | 0.00 | 0.00 | 0.00 | 26 | 1012.0 |
| 20260508182055 | 72 | 345 | 2.0 | 15.0 | 0.00 | 0.00 | 0.00 | 26 | 1012.0 |
| 20260508181604 | 72 | 32 | 2.0 | 15.0 | 0.00 | 0.00 | 0.00 | 25 | 1012.0 |
| 20260508180420 | 72 | 341 | 3.0 | 11.0 | 0.00 | 0.00 | 0.00 | 26 | 1012.0 |
| 20260508175919 | 72 | 308 | 2.0 | 10.0 | 0.00 | 0.00 | 0.00 | 26 | 1012.0 |
| 20260508175401 | 72 | 304 | 2.0 | 10.0 | 0.00 | 0.00 | 0.00 | 26 | 1012.2 |
| 20260508174842 | 72 | 317 | 2.0 | 13.0 | 0.00 | 0.00 | 0.00 | 27 | 1012.2 |
| 20260508174329 | 71 | 334 | 2.0 | 13.0 | 0.00 | 0.00 | 0.00 | 26 | 1012.3 |
| 20260508173825 | 71 | 348 | 3.0 | 13.0 | 0.00 | 0.00 | 0.00 | 26 | 1012.3 |
| 20260508173328 | 71 | 354 | 4.0 | 13.0 | 0.00 | 0.00 | 0.00 | 27 | 1012.2 |
| 20260508172831 | 71 | 332 | 4.0 | 13.0 | 0.00 | 0.00 | 0.00 | 27 | 1012.2 |
| 20260508172324 | 71 | 299 | 5.0 | 13.0 | 0.00 | 0.00 | 0.00 | 29 | 1012.2 |
| 20260508171821 | 70 | 313 | 5.0 | 11.0 | 0.00 | 0.00 | 0.00 | 28 | 1012.1 |
| 20260508171311 | 71 | 341 | 3.0 | 11.0 | 0.00 | 0.00 | 0.00 | 28 | 1012.1 |
| 20260508170752 | 70 | 315 | 4.0 | 11.0 | 0.00 | 0.00 | 0.00 | 31 | 1012.1 |
| 20260508170256 | 70 | 342 | 4.0 | 11.0 | 0.00 | 0.00 | 0.00 | 30 | 1012.1 |
| 20260508165802 | 70 | 348 | 4.0 | 11.0 | 0.00 | 0.00 | 0.00 | 32 | 1012.1 |
| 20260508164042 | 69 | 358 | 4.0 | 8.0 | 0.00 | 0.00 | 0.00 | 33 | 1011.9 |
| 20260508163541 | 70 | 331 | 3.0 | 7.0 | 0.00 | 0.00 | 0.00 | 33 | 1011.9 |
| 20260508163051 | 70 | 346 | 3.0 | 8.0 | 0.00 | 0.00 | 0.00 | 36 | 1011.8 |
| 20260508162546 | 69 | 346 | 2.0 | 8.0 | 0.00 | 0.00 | 0.00 | 37 | 1011.8 |
| 20260508162047 | 69 | 322 | 2.0 | 8.0 | 0.00 | 0.00 | 0.00 | 37 | 1011.8 |
| 20260508160924 | 68 | 323 | 2.0 | 5.0 | 0.00 | 0.00 | 0.00 | 38 | 1011.8 |
| 20260508160412 | 68 | 0 | 1.0 | 5.0 | 0.00 | 0.00 | 0.00 | 37 | 1011.9 |
| 20260508155858 | 67 | 344 | 2.0 | 6.0 | 0.00 | 0.00 | 0.00 | 36 | 1011.9 |
| 20260508155344 | 67 | 336 | 1.0 | 6.0 | 0.00 | 0.00 | 0.00 | 36 | 1011.9 |
| 20260508154825 | 67 | 347 | 2.0 | 6.0 | 0.00 | 0.00 | 0.00 | 38 | 1011.9 |
| 20260508153015 | 66 | 328 | 0.0 | 2.0 | 0.00 | 0.00 | 0.00 | 40 | 1011.9 |
| 20260508151845 | 65 | 351 | 0.0 | 2.0 | 0.00 | 0.00 | 0.00 | 41 | 1011.8 |
| 20260508151339 | 65 | 337 | 0.0 | 0.0 | 0.00 | 0.00 | 0.00 | 42 | 1011.8 |
| 20260508150209 | 65 | 343 | 0.0 | 0.0 | 0.00 | 0.00 | 0.00 | 43 | 1011.8 |
| 20260508145719 | 65 | 303 | 0.0 | 0.0 | 0.00 | 0.00 | 0.00 | 44 | 1011.7 |
| 20260508145224 | 64 | 336 | 0.0 | 0.0 | 0.00 | 0.00 | 0.00 | 45 | 1011.7 |
| 20260508144732 | 63 | 339 | 0.0 | 0.0 | 0.00 | 0.00 | 0.00 | 46 | 1011.7 |
| 20260508144215 | 63 | 328 | 0.0 | 0.0 | 0.00 | 0.00 | 0.00 | 49 | 1011.7 |
| 20260508143708 | 62 | 332 | 0.0 | 0.0 | 0.00 | 0.00 | 0.00 | 49 | 1011.6 |
| 20260508143200 | 62 | 312 | 0.0 | 0.0 | 0.00 | 0.00 | 0.00 | 50 | 1011.6 |
| 20260508142026 | 61 | 51 | 0.0 | 0.0 | 0.00 | 0.00 | 0.00 | 52 | 1011.5 |
| 20260508140920 | 59 | 326 | 0.0 | 0.0 | 0.00 | 0.00 | 0.00 | 54 | 1011.4 |
| 20260508140429 | 58 | 339 | 0.0 | 0.0 | 0.00 | 0.00 | 0.00 | 54 | 1011.4 |
| 20260508135305 | 57 | 70 | 0.0 | 0.0 | 0.00 | 0.00 | 0.00 | 57 | 1011.4 |
| 20260508134805 | 56 | 70 | 0.0 | 0.0 | 0.00 | 0.00 | 0.00 | 58 | 1011.3 |
| 20260508134246 | 55 | 320 | 0.0 | 0.0 | 0.00 | 0.00 | 0.00 | 60 | 1011.3 |
| 20260508133749 | 54 | 278 | 0.0 | 0.0 | 0.00 | 0.00 | 0.00 | 62 | 1011.3 |
| 20260508133253 | 52 | 277 | 0.0 | 0.0 | 0.00 | 0.00 | 0.00 | 63 | 1011.2 |
| 20260508132734 | 51 | 277 | 0.0 | 0.0 | 0.00 | 0.00 | 0.00 | 64 | 1011.2 |
| 20260508132222 | 50 | 277 | 0.0 | 0.0 | 0.00 | 0.00 | 0.00 | 65 | 1011.2 |
| 20260508131721 | 50 | 277 | 0.0 | 0.0 | 0.00 | 0.00 | 0.00 | 65 | 1011.1 |
| 20260508131229 | 50 | 277 | 0.0 | 0.0 | 0.00 | 0.00 | 0.00 | 65 | 1011.1 |
| 20260508130727 | 50 | 277 | 0.0 | 0.0 | 0.00 | 0.00 | 0.00 | 65 | 1010.9 |
| 20260508130221 | 49 | 277 | 0.0 | 0.0 | 0.00 | 0.00 | 0.00 | 65 | 1010.9 |
| 20260508125724 | 49 | 277 | 0.0 | 0.0 | 0.00 | 0.00 | 0.00 | 65 | 1010.9 |
| 20260508125217 | 48 | 277 | 0.0 | 0.0 | 0.00 | 0.00 | 0.00 | 66 | 1010.8 |
| 20260508124705 | 48 | 279 | 0.0 | 0.0 | 0.00 | 0.00 | 0.00 | 67 | 1010.7 |
| 20260508123550 | 48 | 279 | 0.0 | 0.0 | 0.00 | 0.00 | 0.00 | 67 | 1010.5 |
| 20260508123058 | 48 | 279 | 0.0 | 0.0 | 0.00 | 0.00 | 0.00 | 67 | 1010.5 |
| 20260508122605 | 47 | 279 | 0.0 | 0.0 | 0.00 | 0.00 | 0.00 | 67 | 1010.4 |
| 20260508122051 | 47 | 279 | 0.0 | 0.0 | 0.00 | 0.00 | 0.00 | 68 | 1010.4 |
| 20260508121538 | 47 | 279 | 0.0 | 0.0 | 0.00 | 0.00 | 0.00 | 67 | 1010.4 |
| 20260508121021 | 48 | 279 | 0.0 | 0.0 | 0.00 | 0.00 | 0.00 | 67 | 1010.4 |
| 20260508120509 | 48 | 279 | 0.0 | 0.0 | 0.00 | 0.00 | 0.00 | 67 | 1010.4 |
| 20260508115343 | 48 | 279 | 0.0 | 0.0 | 0.00 | 0.00 | 0.00 | 66 | 1010.3 |
| 20260508114829 | 48 | 279 | 0.0 | 0.0 | 0.00 | 0.00 | 0.00 | 66 | 1010.3 |
| 20260508114319 | 49 | 279 | 0.0 | 0.0 | 0.00 | 0.00 | 0.00 | 65 | 1010.3 |
| 20260508113810 | 49 | 279 | 0.0 | 0.0 | 0.00 | 0.00 | 0.00 | 65 | 1010.2 |
| 20260508113305 | 49 | 279 | 0.0 | 0.0 | 0.00 | 0.00 | 0.00 | 65 | 1010.2 |
| 20260508112803 | 49 | 279 | 0.0 | 0.0 | 0.00 | 0.00 | 0.00 | 66 | 1010.2 |
| 20260508112310 | 49 | 279 | 0.0 | 0.0 | 0.00 | 0.00 | 0.00 | 66 | 1010.2 |
| 20260508111800 | 49 | 280 | 0.0 | 0.0 | 0.00 | 0.00 | 0.00 | 65 | 1010.2 |
| 20260508111302 | 49 | 280 | 0.0 | 0.0 | 0.00 | 0.00 | 0.00 | 65 | 1010.3 |
| 20260508110810 | 49 | 279 | 0.0 | 0.0 | 0.00 | 0.00 | 0.00 | 66 | 1010.2 |
| 20260508110303 | 49 | 279 | 0.0 | 0.0 | 0.00 | 0.00 | 0.00 | 67 | 1010.0 |
| 20260508105806 | 48 | 279 | 0.0 | 0.0 | 0.00 | 0.00 | 0.00 | 67 | 1010.1 |
| 20260508105251 | 48 | 279 | 0.0 | 0.0 | 0.00 | 0.00 | 0.00 | 67 | 1010.2 |
| 20260508104758 | 48 | 279 | 0.0 | 0.0 | 0.00 | 0.00 | 0.00 | 67 | 1010.1 |
| 20260508104257 | 48 | 279 | 0.0 | 0.0 | 0.00 | 0.00 | 0.00 | 66 | 1010.1 |
| 20260508103743 | 49 | 279 | 0.0 | 0.0 | 0.00 | 0.00 | 0.00 | 66 | 1010.1 |
| 20260508102629 | 49 | 279 | 0.0 | 0.0 | 0.00 | 0.00 | 0.00 | 64 | 1009.9 |
| 20260508102130 | 49 | 279 | 0.0 | 0.0 | 0.00 | 0.00 | 0.00 | 64 | 1009.8 |
| 20260508101632 | 49 | 279 | 0.0 | 0.0 | 0.00 | 0.00 | 0.00 | 64 | 1009.8 |
| 20260508101131 | 49 | 279 | 0.0 | 0.0 | 0.00 | 0.00 | 0.00 | 64 | 1009.7 |
| 20260508100641 | 49 | 279 | 0.0 | 0.0 | 0.00 | 0.00 | 0.00 | 63 | 1009.7 |
| 20260508100147 | 50 | 279 | 0.0 | 0.0 | 0.00 | 0.00 | 0.00 | 63 | 1009.7 |
| 20260508095641 | 50 | 279 | 0.0 | 0.0 | 0.00 | 0.00 | 0.00 | 63 | 1009.7 |
| 20260508095123 | 50 | 279 | 0.0 | 0.0 | 0.00 | 0.00 | 0.00 | 63 | 1009.6 |
| 20260508094610 | 50 | 279 | 0.0 | 0.0 | 0.00 | 0.00 | 0.00 | 62 | 1009.6 |
| 20260508094052 | 50 | 279 | 0.0 | 0.0 | 0.00 | 0.00 | 0.00 | 62 | 1009.7 |
| 20260508093539 | 50 | 279 | 0.0 | 0.0 | 0.00 | 0.00 | 0.00 | 61 | 1009.7 |
| 20260508093028 | 50 | 279 | 0.0 | 0.0 | 0.00 | 0.00 | 0.00 | 62 | 1009.6 |
| 20260508092529 | 50 | 279 | 0.0 | 0.0 | 0.00 | 0.00 | 0.00 | 61 | 1009.5 |
| 20260508092038 | 50 | 279 | 0.0 | 0.0 | 0.00 | 0.00 | 0.00 | 61 | 1009.3 |
| 20260508091534 | 50 | 279 | 0.0 | 0.0 | 0.00 | 0.00 | 0.00 | 61 | 1009.4 |
| 20260508091042 | 50 | 279 | 0.0 | 0.0 | 0.00 | 0.00 | 0.00 | 60 | 1009.3 |
| 20260508090535 | 50 | 279 | 0.0 | 0.0 | 0.00 | 0.00 | 0.00 | 60 | 1009.3 |
| 20260508090018 | 50 | 279 | 0.0 | 0.0 | 0.00 | 0.00 | 0.00 | 60 | 1009.3 |
| 20260508085502 | 51 | 279 | 0.0 | 0.0 | 0.00 | 0.00 | 0.00 | 59 | 1009.3 |
| 20260508084944 | 51 | 279 | 0.0 | 0.0 | 0.00 | 0.00 | 0.00 | 59 | 1009.3 |
| 20260508084435 | 51 | 279 | 0.0 | 0.0 | 0.00 | 0.00 | 0.00 | 59 | 1009.3 |
| 20260508082045 | 52 | 279 | 0.0 | 0.0 | 0.00 | 0.00 | 0.00 | 56 | 1009.5 |
| 20260508081528 | 52 | 279 | 0.0 | 0.0 | 0.00 | 0.00 | 0.00 | 55 | 1009.3 |
| 20260508081015 | 52 | 279 | 0.0 | 0.0 | 0.00 | 0.00 | 0.00 | 56 | 1009.3 |
| 20260508080513 | 53 | 279 | 0.0 | 0.0 | 0.00 | 0.00 | 0.00 | 57 | 1009.4 |
| 20260508080008 | 53 | 279 | 0.0 | 0.0 | 0.00 | 0.00 | 0.00 | 56 | 1009.3 |
| 20260508075516 | 53 | 279 | 0.0 | 0.0 | 0.00 | 0.00 | 0.00 | 55 | 1009.3 |
| 20260508075011 | 52 | 279 | 0.0 | 0.0 | 0.00 | 0.00 | 0.00 | 58 | 1009.4 |
| 20260508074519 | 52 | 279 | 0.0 | 0.0 | 0.00 | 0.00 | 0.00 | 57 | 1009.4 |
| 20260508074013 | 53 | 279 | 0.0 | 0.0 | 0.00 | 0.00 | 0.00 | 56 | 1009.4 |
| 20260508073458 | 53 | 279 | 0.0 | 0.0 | 0.00 | 0.00 | 0.00 | 54 | 1009.3 |
| 20260508072943 | 54 | 279 | 0.0 | 0.0 | 0.00 | 0.00 | 0.00 | 54 | 1009.3 |
| 20260508071201 | 53 | 268 | 0.0 | 0.0 | 0.00 | 0.00 | 0.00 | 54 | 1009.2 |
| 20260508070046 | 54 | 267 | 0.0 | 0.0 | 0.00 | 0.00 | 0.00 | 53 | 1009.1 |
| 20260508064908 | 54 | 267 | 0.0 | 0.0 | 0.00 | 0.00 | 0.00 | 52 | 1009.2 |
| 20260508064356 | 55 | 267 | 0.0 | 0.0 | 0.00 | 0.00 | 0.00 | 51 | 1009.0 |
| 20260508063840 | 55 | 267 | 0.0 | 0.0 | 0.00 | 0.00 | 0.00 | 51 | 1009.1 |
| 20260508063330 | 55 | 267 | 0.0 | 0.0 | 0.00 | 0.00 | 0.00 | 50 | 1009.1 |
| 20260508062812 | 56 | 267 | 0.0 | 0.0 | 0.00 | 0.00 | 0.00 | 50 | 1009.1 |
| 20260508062306 | 56 | 267 | 0.0 | 0.0 | 0.00 | 0.00 | 0.00 | 50 | 1009.2 |
| 20260508061809 | 56 | 267 | 0.0 | 0.0 | 0.00 | 0.00 | 0.00 | 50 | 1009.2 |
| 20260508060640 | 56 | 267 | 0.0 | 0.0 | 0.00 | 0.00 | 0.00 | 50 | 1009.2 |
| 20260508060146 | 56 | 267 | 0.0 | 0.0 | 0.00 | 0.00 | 0.00 | 50 | 1009.3 |
| 20260508055650 | 56 | 266 | 0.0 | 0.0 | 0.00 | 0.00 | 0.00 | 49 | 1009.1 |
| 20260508055146 | 57 | 286 | 0.0 | 0.0 | 0.00 | 0.00 | 0.00 | 49 | 1009.1 |
| 20260508054653 | 57 | 286 | 0.0 | 0.0 | 0.00 | 0.00 | 0.00 | 49 | 1009.1 |
| 20260508054152 | 57 | 292 | 0.0 | 0.0 | 0.00 | 0.00 | 0.00 | 50 | 1009.0 |
| 20260508053645 | 57 | 298 | 0.0 | 0.0 | 0.00 | 0.00 | 0.00 | 50 | 1009.0 |
| 20260508053154 | 57 | 298 | 0.0 | 0.0 | 0.00 | 0.00 | 0.00 | 49 | 1009.0 |
| 20260508052656 | 57 | 298 | 0.0 | 0.0 | 0.00 | 0.00 | 0.00 | 50 | 1008.9 |
| 20260508051526 | 58 | 300 | 0.0 | 0.0 | 0.00 | 0.00 | 0.00 | 48 | 1008.8 |
| 20260508051031 | 58 | 288 | 0.0 | 0.0 | 0.00 | 0.00 | 0.00 | 47 | 1008.8 |
| 20260508045911 | 59 | 288 | 0.0 | 0.0 | 0.00 | 0.00 | 0.00 | 47 | 1008.8 |
| 20260508045410 | 59 | 321 | 0.0 | 0.0 | 0.00 | 0.00 | 0.00 | 46 | 1008.8 |
| 20260508044235 | 60 | 307 | 0.0 | 0.0 | 0.00 | 0.00 | 0.00 | 44 | 1008.7 |
| 20260508043716 | 60 | 316 | 0.0 | 0.0 | 0.00 | 0.00 | 0.00 | 43 | 1008.7 |
| 20260508043207 | 60 | 316 | 0.0 | 0.0 | 0.00 | 0.00 | 0.00 | 44 | 1008.8 |
| 20260508042715 | 60 | 280 | 0.0 | 0.0 | 0.00 | 0.00 | 0.00 | 43 | 1008.7 |
| 20260508042158 | 61 | 280 | 0.0 | 0.0 | 0.00 | 0.00 | 0.00 | 43 | 1008.6 |
| 20260508041707 | 61 | 279 | 0.0 | 0.0 | 0.00 | 0.00 | 0.00 | 42 | 1008.6 |
| 20260508041157 | 62 | 272 | 0.0 | 0.0 | 0.00 | 0.00 | 0.00 | 40 | 1008.5 |
| 20260508040642 | 63 | 268 | 0.0 | 0.0 | 0.00 | 0.00 | 0.00 | 39 | 1008.4 |
| 20260508040130 | 63 | 267 | 0.0 | 1.0 | 0.00 | 0.00 | 0.00 | 38 | 1008.5 |
| 20260508035620 | 64 | 268 | 0.0 | 1.0 | 0.00 | 0.00 | 0.00 | 38 | 1008.4 |
| 20260508035119 | 64 | 267 | 0.0 | 1.0 | 0.00 | 0.00 | 0.00 | 38 | 1008.4 |
| 20260508034625 | 64 | 268 | 0.0 | 1.0 | 0.00 | 0.00 | 0.00 | 38 | 1008.4 |
| 20260508034117 | 64 | 268 | 0.0 | 0.0 | 0.00 | 0.00 | 0.00 | 37 | 1008.4 |
| 20260508033625 | 64 | 268 | 0.0 | 0.0 | 0.00 | 0.00 | 0.00 | 37 | 1008.3 |
| 20260508033115 | 64 | 265 | 0.0 | 0.0 | 0.00 | 0.00 | 0.00 | 37 | 1008.3 |
| 20260508032615 | 65 | 265 | 0.0 | 0.0 | 0.00 | 0.00 | 0.00 | 36 | 1008.3 |
| 20260508032104 | 65 | 262 | 0.0 | 1.0 | 0.00 | 0.00 | 0.00 | 35 | 1008.3 |
| 20260508031604 | 65 | 281 | 0.0 | 0.0 | 0.00 | 0.00 | 0.00 | 35 | 1008.2 |
| 20260508030434 | 66 | 293 | 0.0 | 0.0 | 0.00 | 0.00 | 0.00 | 35 | 1008.1 |
| 20260508025300 | 66 | 309 | 0.0 | 0.0 | 0.00 | 0.00 | 0.00 | 35 | 1008.1 |
| 20260508024804 | 67 | 321 | 0.0 | 0.0 | 0.00 | 0.00 | 0.00 | 33 | 1008.1 |
| 20260508024311 | 68 | 321 | 0.0 | 0.0 | 0.00 | 0.00 | 0.00 | 33 | 1008.1 |
| 20260508023812 | 69 | 322 | 0.0 | 0.0 | 0.00 | 0.00 | 0.00 | 30 | 1008.0 |
| 20260508022630 | 71 | 322 | 0.0 | 0.0 | 0.00 | 0.00 | 0.00 | 27 | 1008.0 |
| 20260508021514 | 72 | 322 | 0.0 | 0.0 | 0.00 | 0.00 | 0.00 | 25 | 1008.0 |
| 20260508021010 | 73 | 322 | 0.0 | 0.0 | 0.00 | 0.00 | 0.00 | 26 | 1008.0 |
| 20260508020500 | 73 | 322 | 0.0 | 2.0 | 0.00 | 0.00 | 0.00 | 25 | 1007.9 |
| 20260508015955 | 73 | 322 | 0.0 | 2.0 | 0.00 | 0.00 | 0.00 | 24 | 1007.9 |
| 20260508015454 | 74 | 326 | 0.0 | 3.0 | 0.00 | 0.00 | 0.00 | 24 | 1007.9 |
| 20260508014956 | 74 | 334 | 0.0 | 3.0 | 0.00 | 0.00 | 0.00 | 24 | 1007.8 |
| 20260508014448 | 74 | 325 | 0.0 | 3.0 | 0.00 | 0.00 | 0.00 | 23 | 1007.9 |
| 20260508013939 | 74 | 322 | 0.0 | 3.0 | 0.00 | 0.00 | 0.00 | 23 | 1007.9 |
| 20260508013424 | 74 | 317 | 1.0 | 3.0 | 0.00 | 0.00 | 0.00 | 23 | 1007.9 |
| 20260508012306 | 75 | 332 | 0.0 | 2.0 | 0.00 | 0.00 | 0.00 | 23 | 1008.0 |
| 20260508011758 | 75 | 322 | 0.0 | 3.0 | 0.00 | 0.00 | 0.00 | 23 | 1007.9 |
| 20260508010629 | 75 | 312 | 0.0 | 0.0 | 0.00 | 0.00 | 0.00 | 23 | 1008.0 |
| 20260508005509 | 75 | 331 | 0.0 | 3.0 | 0.00 | 0.00 | 0.00 | 22 | 1008.0 |
| 20260508003741 | 74 | 327 | 0.0 | 2.0 | 0.00 | 0.00 | 0.00 | 24 | 1008.2 |
| 20260508003238 | 74 | 325 | 0.0 | 0.0 | 0.00 | 0.00 | 0.00 | 24 | 1008.2 |
| 20260508002133 | 74 | 322 | 0.0 | 4.0 | 0.00 | 0.00 | 0.00 | 23 | 1008.5 |
| 20260508001640 | 75 | 333 | 0.0 | 1.0 | 0.00 | 0.00 | 0.00 | 22 | 1008.4 |
| 20260508001130 | 75 | 299 | 0.0 | 0.0 | 0.00 | 0.00 | 0.00 | 23 | 1008.5 |
| 20260508000625 | 75 | 324 | 0.0 | 0.0 | 0.00 | 0.00 | 0.00 | 23 | 1008.5 |
| 20260508000111 | 75 | 333 | 0.0 | 4.0 | 0.00 | 0.00 | 0.00 | 23 | 1008.6 |
| 20260507235610 | 75 | 323 | 0.0 | 3.0 | 0.00 | 0.00 | 0.00 | 23 | 1008.6 |
| 20260507235106 | 75 | 323 | 0.0 | 2.0 | 0.00 | 0.00 | 0.00 | 22 | 1008.6 |
| 20260507234552 | 75 | 309 | 0.0 | 1.0 | 0.00 | 0.00 | 0.00 | 23 | 1008.8 |
| 20260507234059 | 75 | 289 | 1.0 | 0.0 | 0.00 | 0.00 | 0.00 | 22 | 1008.9 |
| 20260507232933 | 75 | 350 | 2.0 | 8.0 | 0.00 | 0.00 | 0.00 | 21 | 1008.9 |
| 20260507231823 | 77 | 337 | 1.0 | 8.0 | 0.00 | 0.00 | 0.00 | 21 | 1009.1 |
| 20260507231305 | 76 | 257 | 1.0 | 8.0 | 0.00 | 0.00 | 0.00 | 23 | 1009.1 |
| 20260507230757 | 76 | 348 | 3.0 | 8.0 | 0.00 | 0.00 | 0.00 | 21 | 1009.2 |
| 20260507230258 | 76 | 327 | 2.0 | 8.0 | 0.00 | 0.00 | 0.00 | 22 | 1009.4 |
| 20260507225749 | 76 | 334 | 1.0 | 6.0 | 0.00 | 0.00 | 0.00 | 22 | 1009.5 |
| 20260507225241 | 75 | 318 | 2.0 | 8.0 | 0.00 | 0.00 | 0.00 | 23 | 1009.6 |
| 20260507224727 | 76 | 336 | 1.0 | 8.0 | 0.00 | 0.00 | 0.00 | 22 | 1009.7 |
| 20260507224231 | 76 | 324 | 2.0 | 8.0 | 0.00 | 0.00 | 0.00 | 22 | 1009.8 |
| 20260507223727 | 75 | 339 | 3.0 | 8.0 | 0.00 | 0.00 | 0.00 | 22 | 1009.9 |
| 20260507223236 | 76 | 328 | 1.0 | 8.0 | 0.00 | 0.00 | 0.00 | 22 | 1010.0 |
| 20260507222732 | 76 | 314 | 1.0 | 8.0 | 0.00 | 0.00 | 0.00 | 23 | 1010.1 |
| 20260507222238 | 75 | 325 | 2.0 | 8.0 | 0.00 | 0.00 | 0.00 | 23 | 1010.2 |
| 20260507221730 | 75 | 317 | 1.0 | 8.0 | 0.00 | 0.00 | 0.00 | 23 | 1010.2 |
| 20260507221219 | 75 | 296 | 1.0 | 8.0 | 0.00 | 0.00 | 0.00 | 23 | 1010.3 |